TimeCDT,TemperatureF,Dew PointF,Humidity,Sea Level PressureIn,VisibilityMPH,Wind Direction,Wind SpeedMPH,Gust SpeedMPH,PrecipitationIn,Events,Conditions,WindDirDegrees,DateUTC
12:52 AM,73.9,68.0,82,29.75,10.0,SE,6.9,-,N/A,,Clear,130,2013-07-22 05:52:00
1:52 AM,77.0,61.0,58,29.74,10.0,South,8.1,-,N/A,,Clear,170,2013-07-22 06:52:00
2:52 AM,75.9,59.0,56,29.73,10.0,SW,9.2,-,N/A,,Clear,220,2013-07-22 07:52:00
3:52 AM,75.9,57.9,54,29.73,10.0,SW,11.5,-,N/A,,Clear,220,2013-07-22 08:52:00
4:52 AM,75.0,57.9,55,29.73,10.0,SW,12.7,-,N/A,,Clear,220,2013-07-22 09:52:00
5:52 AM,73.0,59.0,61,29.73,10.0,SSW,11.5,-,N/A,,Clear,210,2013-07-22 10:52:00
6:52 AM,73.0,60.1,64,29.74,10.0,SW,10.4,-,N/A,,Clear,220,2013-07-22 11:52:00
7:52 AM,75.0,60.1,60,29.75,10.0,SW,12.7,-,N/A,,Clear,230,2013-07-22 12:52:00
8:52 AM,80.1,59.0,48,29.81,10.0,NNW,16.1,21.9,N/A,,Scattered Clouds,340,2013-07-22 13:52:00
9:52 AM,82.9,59.0,44,29.79,10.0,NE,8.1,-,N/A,,Clear,50,2013-07-22 14:52:00
10:52 AM,86.0,60.1,41,29.80,10.0,NE,4.6,-,N/A,,Clear,40,2013-07-22 15:52:00
11:52 AM,88.0,61.0,40,29.79,10.0,SE,8.1,-,N/A,,Clear,130,2013-07-22 16:52:00
12:52 PM,93.0,61.0,34,29.76,10.0,SSE,11.5,19.6,N/A,,Clear,150,2013-07-22 17:52:00
1:52 PM,96.1,62.1,32,29.74,10.0,SSE,18.4,23.0,N/A,,Clear,150,2013-07-22 18:52:00
2:52 PM,99.0,59.0,26,29.72,10.0,Variable,3.5,-,N/A,,Clear,0,2013-07-22 19:52:00
3:52 PM,100.9,51.1,19,29.71,10.0,SSW,6.9,19.6,N/A,,Clear,200,2013-07-22 20:52:00
4:52 PM,98.1,50.0,20,29.70,10.0,SSW,11.5,18.4,N/A,Thunderstorm,Clear,200,2013-07-22 21:52:00
5:08 PM,100.4,51.8,20,29.80,10.0,SSW,10.4,-,N/A,Thunderstorm,Clear,200,2013-07-22 22:08:00
5:52 PM,102.0,51.1,18,29.68,10.0,South,13.8,19.6,N/A,Thunderstorm,Partly Cloudy,190,2013-07-22 22:52:00
6:19 PM,84.2,59.0,42,29.82,9.0,NE,29.9,57.5,N/A,Thunderstorm,Unknown,50,2013-07-22 23:19:00
6:27 PM,84.2,60.8,45,29.82,7.0,ENE,26.5,40.3,N/A,Thunderstorm,Mostly Cloudy,70,2013-07-22 23:27:00
6:52 PM,86.0,57.9,38,29.72,9.0,ESE,29.9,43.7,N/A,Thunderstorm,Partly Cloudy,110,2013-07-22 23:52:00
6:59 PM,78.8,60.8,54,29.83,9.0,ESE,27.6,46.0,N/A,,Clear,110,2013-07-22 23:59:00
7:52 PM,78.1,57.9,50,29.75,9.0,SE,29.9,42.6,N/A,,Clear,140,2013-07-23 00:52:00
8:52 PM,80.1,57.0,45,29.74,10.0,SSE,21.9,31.1,N/A,,Clear,160,2013-07-23 01:52:00
9:52 PM,82.0,60.1,47,29.76,10.0,South,18.4,26.5,N/A,,Clear,180,2013-07-23 02:52:00
10:52 PM,80.1,62.1,54,29.77,10.0,SSE,16.1,24.2,N/A,,Clear,160,2013-07-23 03:52:00
11:52 PM,75.9,63.0,64,29.79,10.0,South,10.4,-,N/A,,Clear,170,2013-07-23 04:52:00